| time (UTC) | temp C | wind direction | speed KPH | gust KPH | rain 1hr cm | rain 24hr cm | rain mn cm | humidity % | barometer mb |
| 20260504090107 | 7 | 0 | 0.0 | 0.0 | 0.00 | 0.00 | 0.00 | 94 | 1017.8 |
| 20260504081554 | 7 | 0 | 0.0 | 0.0 | 0.00 | 0.00 | 0.00 | 93 | 1017.8 |
| 20260504044553 | 8 | 0 | 0.0 | 0.0 | 0.00 | 0.00 | 0.00 | 90 | 1018.8 |
| 20260504043054 | 8 | 0 | 0.0 | 0.0 | 0.00 | 0.00 | 0.00 | 89 | 1018.7 |
| 20260504041553 | 8 | 0 | 0.0 | 0.0 | 0.00 | 0.00 | 0.00 | 88 | 1018.8 |
| 20260504040109 | 8 | 0 | 0.0 | 0.0 | 0.00 | 0.00 | 0.00 | 87 | 1018.9 |
| 20260504034600 | 9 | 0 | 0.0 | 0.0 | 0.00 | 0.00 | 0.00 | 85 | 1019.2 |
| 20260504033052 | 9 | 0 | 0.0 | 0.0 | 0.00 | 0.00 | 0.00 | 85 | 1019.3 |
| 20260504031552 | 10 | 0 | 0.0 | 0.0 | 0.00 | 0.00 | 0.00 | 84 | 1019.4 |
| 20260504030052 | 10 | 0 | 0.0 | 0.0 | 0.00 | 0.00 | 0.00 | 84 | 1019.4 |
| 20260504024555 | 10 | 0 | 0.0 | 0.0 | 0.00 | 0.00 | 0.00 | 84 | 1019.3 |
| 20260504023053 | 10 | 0 | 0.0 | 0.0 | 0.00 | 0.00 | 0.00 | 84 | 1019.2 |
| 20260504021554 | 11 | 0 | 0.0 | 0.0 | 0.00 | 0.00 | 0.00 | 83 | 1018.9 |
| 20260504020052 | 11 | 0 | 0.0 | 0.0 | 0.00 | 0.00 | 0.00 | 82 | 1018.8 |
| 20260504014553 | 11 | 0 | 0.0 | 0.0 | 0.00 | 0.00 | 0.00 | 80 | 1018.6 |
| 20260504013108 | 12 | 0 | 0.0 | 0.0 | 0.00 | 0.00 | 0.00 | 77 | 1018.6 |
| 20260504011553 | 12 | 0 | 0.0 | 0.0 | 0.00 | 0.00 | 0.00 | 75 | 1018.5 |
| 20260504010101 | 13 | 0 | 0.0 | 0.0 | 0.00 | 0.00 | 0.00 | 70 | 1018.6 |
| 20260504004608 | 15 | 0 | 0.0 | 0.0 | 0.00 | 0.00 | 0.00 | 67 | 1018.5 |
| 20260504003051 | 16 | 0 | 0.0 | 0.0 | 0.00 | 0.00 | 0.00 | 61 | 1018.5 |
| 20260504001555 | 17 | 0 | 0.0 | 4.8 | 0.00 | 0.00 | 0.00 | 54 | 1018.4 |
| 20260504000114 | 18 | 0 | 0.0 | 6.4 | 0.00 | 0.00 | 0.00 | 49 | 1018.4 |
| 20260503234554 | 18 | 0 | 0.0 | 6.4 | 0.00 | 0.00 | 0.00 | 51 | 1018.5 |
| 20260503233059 | 19 | 0 | 3.2 | 9.7 | 0.00 | 0.00 | 0.00 | 43 | 1018.5 |
| 20260503231558 | 20 | 182 | 1.6 | 8.0 | 0.00 | 0.00 | 0.00 | 43 | 1018.4 |
| 20260503230057 | 20 | 0 | 3.2 | 11.3 | 0.00 | 0.00 | 0.00 | 42 | 1018.5 |
| 20260503224555 | 20 | 228 | 3.2 | 11.3 | 0.00 | 0.00 | 0.00 | 39 | 1018.7 |
| 20260503223054 | 21 | 215 | 1.6 | 11.3 | 0.00 | 0.00 | 0.00 | 41 | 1018.6 |
| 20260503221559 | 21 | 214 | 3.2 | 12.9 | 0.00 | 0.00 | 0.00 | 39 | 1018.6 |
| 20260503220118 | 21 | 201 | 1.6 | 14.5 | 0.00 | 0.00 | 0.00 | 38 | 1018.8 |
| 20260503214555 | 21 | 209 | 4.8 | 14.5 | 0.00 | 0.00 | 0.00 | 37 | 1019.0 |
| 20260503213100 | 20 | 217 | 1.6 | 14.5 | 0.00 | 0.00 | 0.00 | 36 | 1018.9 |
| 20260503211556 | 20 | 251 | 4.8 | 17.7 | 0.00 | 0.00 | 0.00 | 42 | 1019.3 |
| 20260503210057 | 21 | 360 | 1.6 | 9.7 | 0.00 | 0.00 | 0.00 | 42 | 1019.4 |
| 20260503204606 | 20 | 209 | 3.2 | 9.7 | 0.00 | 0.00 | 0.00 | 40 | 1019.6 |
| 20260503203101 | 20 | 240 | 3.2 | 9.7 | 0.00 | 0.00 | 0.00 | 41 | 1019.9 |
| 20260503201555 | 20 | 0 | 3.2 | 8.0 | 0.00 | 0.00 | 0.00 | 45 | 1020.0 |
| 20260503200101 | 19 | 195 | 3.2 | 12.9 | 0.00 | 0.00 | 0.00 | 44 | 1020.3 |
| 20260503194602 | 19 | 221 | 3.2 | 14.5 | 0.00 | 0.00 | 0.00 | 44 | 1020.7 |
| 20260503193056 | 18 | 187 | 4.8 | 14.5 | 0.00 | 0.00 | 0.00 | 48 | 1021.0 |
| 20260503191553 | 19 | 157 | 4.8 | 12.9 | 0.00 | 0.00 | 0.00 | 45 | 1021.3 |
| 20260503190054 | 18 | 0 | 4.8 | 17.7 | 0.00 | 0.00 | 0.00 | 50 | 1021.5 |
| 20260503184604 | 18 | 360 | 1.6 | 16.1 | 0.00 | 0.00 | 0.00 | 52 | 1021.6 |
| 20260503183056 | 18 | 188 | 3.2 | 16.1 | 0.00 | 0.00 | 0.00 | 57 | 1021.8 |
| 20260503181556 | 17 | 175 | 3.2 | 12.9 | 0.00 | 0.00 | 0.00 | 53 | 1021.9 |
| 20260503180106 | 18 | 265 | 1.6 | 12.9 | 0.00 | 0.00 | 0.00 | 55 | 1022.1 |
| 20260503174553 | 18 | 0 | 1.6 | 9.7 | 0.00 | 0.00 | 0.00 | 57 | 1022.4 |
| 20260503173103 | 17 | 0 | 0.0 | 9.7 | 0.00 | 0.00 | 0.00 | 57 | 1022.3 |
| 20260503171554 | 17 | 0 | 0.0 | 6.4 | 0.00 | 0.00 | 0.00 | 52 | 1022.7 |
| 20260503160115 | 15 | 222 | 1.6 | 12.9 | 0.00 | 0.00 | 0.00 | 54 | 1023.5 |